Theta_e
306 307 307 307 305 304 303 302 301 301 302 302 302 302 302 303 304 304 303 309 300 293 294 297 298 293 293 291 287 293 293 296 295 291 289 289 288 289 286 289 285 285 284 286 285 282 281 294 292 289 298 304 304 305
306 307 306 304 303 302 301 300 300 300 300 301 301 301 302 302 303 304 300 307 306 296 295 301 301 302 300 298 293 292 293 293 294 292 291 292 290 290 289 285 289 285 285 285 285 286 293 293 289 294 299 301 303 303
307 306 304 302 301 300 300 300 299 299 300 299 300 300 301 301 302 302 302 304 301 295 296 298 299 304 307 306 306 292 296 300 296 298 291 292 288 292 286 288 287 291 293 287 287 291 289 293 299 298 297 300 300 300
304 303 302 301 300 300 299 299 299 299 300 300 301 302 302 302 302 302 300 304 300 295 288 296 304 303 307 307 305 304 301 304 301 298 292 290 289 296 292 293 292 293 296 292 292 295 295 296 298 300 300 301 301 307
302 301 300 299 299 299 299 298 298 299 299 301 302 303 302 302 302 302 302 302 301 295 289 292 301 305 306 306 303 303 301 298 295 292 291 290 296 295 297 297 294 298 294 292 290 297 294 296 299 301 300 301 302 303
300 299 298 298 298 298 297 298 298 299 300 301 302 301 301 301 301 301 295 302 304 301 291 288 303 302 304 306 305 301 299 297 295 295 294 296 301 295 292 293 299 301 302 301 297 300 299 299 298 298 298 301 302 302
298 298 297 298 297 297 297 297 298 299 300 301 301 302 301 301 302 297 299 301 304 302 292 289 291 303 303 304 303 300 300 298 296 296 296 298 298 296 296 292 299 300 302 301 302 300 296 298 295 298 299 301 302 302
297 297 297 297 297 297 298 298 298 299 301 302 301 300 301 305 302 299 303 304 304 297 295 289 291 298 304 301 300 302 299 298 297 297 301 300 299 299 294 298 299 300 301 300 299 302 300 300 299 298 301 301 300 299
297 297 297 297 297 297 297 298 299 301 301 301 299 300 305 303 298 301 304 308 303 297 290 291 290 291 303 301 305 300 300 293 299 295 297 297 296 294 298 298 299 300 300 300 300 300 299 299 297 298 300 299 301 297
296 296 296 296 296 297 297 298 300 299 300 299 298 300 297 303 300 302 301 295 293 294 294 291 298 293 299 299 299 301 301 296 293 296 300 296 297 302 302 302 303 302 303 302 299 296 298 298 295 296 298 300 300 297
296 296 295 296 296 296 297 298 299 299 299 296 293 292 298 301 302 300 295 292 291 289 293 295 295 292 300 294 296 301 298 300 292 296 296 296 298 301 304 303 305 303 305 303 303 301 300 298 296 297 297 299 298 298
295 295 295 296 296 297 297 297 298 297 296 295 295 296 295 294 295 291 291 294 293 290 296 295 294 294 295 300 297 300 295 298 289 300 295 293 299 303 303 303 304 305 305 304 303 301 300 298 297 297 298 298 299 300
295 295 295 296 297 297 297 297 298 298 299 297 292 288 291 293 285 284 283 287 291 296 293 294 294 299 295 296 296 296 292 292 301 294 292 297 302 303 304 304 305 306 306 304 303 302 301 299 298 298 298 299 298 299
294 295 296 296 297 297 297 298 298 298 295 290 288 284 287 285 285 288 289 292 295 294 295 295 294 294 296 288 289 288 296 297 290 288 290 297 303 304 305 304 305 304 305 304 303 303 300 299 298 298 299 299 297 296
294 296 296 297 296 297 297 298 298 299 295 287 288 281 287 292 293 293 290 292 294 296 294 292 294 296 294 289 291 293 291 288 292 293 298 301 304 306 305 305 305 305 306 305 305 304 302 300 298 298 299 300 299 298
295 296 297 295 296 297 297 298 298 296 294 289 287 285 290 288 288 290 292 292 294 294 295 294 291 291 292 293 289 290 289 288 293 300 302 303 305 306 307 307 306 306 307 306 306 305 304 301 299 299 300 300 299 297
295 296 294 295 297 297 296 295 294 288 288 286 289 292 290 290 289 290 291 292 295 291 289 292 288 288 297 290 289 296 292 297 301 302 304 306 305 307 308 307 307 307 307 307 306 306 305 303 302 300 298 299 299 298
295 297 296 297 297 297 298 296 290 288 284 289 286 288 289 290 289 290 291 293 292 291 291 289 293 289 288 286 292 297 299 300 302 302 303 306 308 309 308 308 307 307 307 308 307 307 306 305 303 301 300 300 300 300
295 297 296 296 296 295 290 291 294 286 287 289 290 290 290 290 292 292 292 293 294 296 292 290 288 287 289 294 294 297 299 300 298 300 303 307 309 308 308 309 309 309 308 308 308 307 307 307 305 303 302 302 299 300
296 295 295 295 295 293 285 289 295 288 285 288 290 289 289 289 291 291 292 292 293 291 287 286 288 292 293 295 297 298 299 300 300 299 301 303 308 309 308 308 309 310 309 309 309 302 308 307 306 305 304 302 300 299
294 295 295 295 295 294 290 289 288 290 288 287 289 288 286 289 288 290 291 294 291 291 289 291 293 295 298 299 299 299 299 300 298 301 301 301 305 305 308 311 310 310 310 307 306 305 302 306 306 306 303 303 302 301
296 293 296 295 291 290 290 293 288 290 288 288 288 288 286 286 287 290 292 291 289 286 288 289 290 292 294 296 297 298 298 298 299 299 299 301 303 304 305 307 309 308 308 309 307 307 307 308 308 306 305 303 300 300
294 295 294 291 285 285 284 294 286 287 283 284 287 284 284 285 287 290 285 285 286 289 288 288 289 291 292 295 296 296 297 296 296 297 298 300 302 305 306 307 307 308 308 309 310 308 308 302 303 305 304 302 301 298
293 289 285 285 286 282 288 286 289 286 286 284 283 281 283 285 289 287 282 284 287 289 288 288 288 288 289 291 290 290 292 293 292 294 299 299 299 301 304 306 308 309 310 311 310 309 309 307 301 305 303 302 300 299
283 281 284 278 286 282 280 282 282 284 280 283 281 282 285 288 285 282 281 284 285 286 286 287 287 288 287 287 288 289 290 289 287 288 293 297 299 300 302 307 309 310 312 310 309 308 307 307 305 304 303 302 301 299
278 281 281 283 284 282 284 279 280 280 282 280 280 287 288 285 281 279 282 284 284 285 285 285 285 285 286 287 285 286 286 288 287 287 291 296 297 297 297 298 304 308 312 311 308 306 305 306 305 303 302 300 292 299
278 280 285 290 289 287 284 286 286 283 280 279 284 283 284 278 278 282 285 286 284 286 288 289 287 286 286 287 288 289 289 288 288 288 293 296 297 296 295 296 297 302 308 311 310 308 307 306 304 303 302 302 301 300
285 285 282 285 285 286 281 283 281 280 283 288 287 281 278 278 280 284 285 287 287 288 288 289 289 289 289 289 290 290 289 289 289 290 291 291 292 294 292 294 298 291 303 308 310 310 309 307 306 305 303 300 300 301
284 287 286 281 282 283 283 283 284 288 290 289 285 282 281 283 284 284 285 287 288 287 286 286 287 289 289 290 291 290 289 287 285 284 282 282 282 286 288 291 293 297 301 306 292 298 308 306 305 303 299 299 301 301
284 289 285 284 282 282 288 290 290 292 292 291 290 286 284 284 286 289 288 287 286 285 285 286 287 286 285 285 285 287 289 288 285 282 280 280 282 285 287 289 290 291 295 299 305 301 288 297 295 299 297 296 295 294
289 288 285 285 285 289 292 294 293 290 290 289 288 285 284 283 285 287 286 287 287 286 284 284 286 286 284 284 283 283 283 286 288 286 284 285 286 286 286 288 288 290 292 295 301 300 298 298 298 296 295 292 291 293
288 286 285 282 285 291 293 290 289 287 287 285 284 285 284 284 281 282 284 285 284 282 282 282 283 284 285 286 286 286 283 286 286 285 284 285 286 287 287 288 289 288 288 288 289 294 297 295 292 292 292 292 292 291
286 286 285 285 285 285 289 288 285 284 284 284 284 285 284 283 278 283 286 286 284 283 282 283 286 286 286 285 285 286 285 287 285 283 282 282 283 283 286 288 289 288 286 285 284 284 285 285 284 285 285 285 286 287
Wind_Speed
13 14 14 12 12 13 14 15 17 16 16 16 16 16 16 15 14 7 7 6 4 5 12 19 21 13 7 5 3 8 10 2 5 6 4 4 5 5 4 10 6 4 4 2 7 6 6 7 9 12 9 6 9 11
12 13 8 10 12 13 14 15 16 16 16 16 16 16 15 14 15 10 7 3 3 6 8 20 22 24 26 23 9 3 7 10 4 2 1 6 4 4 9 6 3 2 3 4 4 3 8 14 20 25 24 18 16 13
13 7 9 11 13 13 14 15 16 17 16 16 17 16 16 14 12 9 6 5 3 4 11 8 6 2 8 14 15 5 7 4 2 2 1 4 5 2 4 5 3 3 6 4 4 6 12 13 13 6 14 18 14 15
5 7 9 11 11 13 14 16 17 18 19 18 17 16 15 14 12 10 7 5 3 3 5 4 3 10 9 10 14 21 13 1 3 1 3 3 4 3 4 9 5 4 9 10 7 9 11 11 17 16 4 3 5 9
5 7 9 10 12 13 15 17 18 19 18 18 18 18 17 17 14 10 8 9 8 5 5 8 19 7 3 7 13 15 15 12 3 3 4 3 4 3 6 7 2 5 6 8 9 13 7 9 14 18 14 13 11 10
5 7 9 11 12 14 16 17 19 19 19 21 20 22 22 19 13 4 4 2 3 5 3 5 7 6 5 6 9 11 8 7 4 3 3 3 4 2 4 4 8 10 11 12 9 9 12 14 14 15 14 12 12 10
5 7 9 11 13 15 16 18 20 22 22 23 25 25 22 13 7 5 4 3 6 5 3 5 5 4 3 4 3 4 8 4 4 3 4 4 3 3 4 3 8 8 10 11 12 12 10 14 11 13 13 10 9 9
5 7 9 12 13 16 17 19 21 22 24 24 26 22 16 3 2 5 5 8 4 2 3 4 6 5 4 4 4 4 4 3 5 3 4 3 2 4 4 5 4 6 7 9 10 7 9 10 13 11 6 6 9 11
6 7 10 12 14 16 18 20 21 22 25 26 22 15 5 4 3 1 7 5 5 2 3 3 3 4 3 5 1 3 2 4 2 3 3 1 5 4 3 5 3 6 7 8 9 12 10 13 14 12 13 11 11 12
6 8 10 12 14 15 17 19 20 23 26 21 8 5 3 1 11 7 5 3 3 4 4 5 5 8 8 4 3 2 5 3 3 5 4 4 5 2 3 5 4 4 6 9 11 12 12 15 14 14 15 12 12 11
6 8 11 13 13 15 17 18 19 24 9 5 5 3 8 8 5 5 4 5 4 4 5 5 7 6 2 5 4 2 4 1 3 4 3 2 2 3 8 6 5 5 6 6 10 10 10 11 11 12 13 14 12 13
7 9 11 13 15 17 16 15 17 11 7 9 11 10 4 4 5 5 5 4 5 4 3 3 1 3 3 5 4 4 3 2 3 1 3 2 3 7 8 6 7 6 5 7 10 11 9 10 10 12 13 13 12 12
8 9 11 12 13 13 12 14 15 16 15 1 2 3 3 2 3 4 4 4 3 2 4 3 2 2 2 2 4 3 4 2 2 3 3 2 4 6 8 7 9 6 7 7 9 9 10 11 12 11 12 12 12 12
8 11 12 13 13 12 15 16 16 12 5 4 4 4 4 1 3 3 8 8 5 3 6 4 4 3 1 1 1 3 3 1 3 3 1 4 2 7 7 8 8 8 7 7 7 8 9 10 11 11 12 12 10 12
9 12 14 10 5 15 18 18 16 6 3 4 3 4 3 5 7 7 6 5 7 7 6 7 6 5 4 4 4 3 4 4 3 1 3 4 6 4 8 8 9 9 7 7 7 7 8 9 10 11 12 11 11 11
9 14 2 4 14 17 19 13 1 1 2 3 4 5 4 8 8 5 4 3 6 9 7 5 6 4 4 2 2 4 2 2 2 3 5 4 5 5 7 8 8 8 9 7 7 8 7 7 9 9 10 11 12 12
8 3 4 13 16 18 5 2 1 1 4 3 2 4 5 7 9 8 9 8 6 8 5 5 6 2 1 1 3 2 3 4 4 6 7 6 6 4 6 7 7 7 8 9 8 8 9 7 6 7 9 9 10 12
3 3 9 14 12 6 1 1 2 2 3 3 5 7 9 8 9 9 8 7 6 6 4 4 6 4 4 3 1 4 6 8 9 8 8 9 4 3 5 7 9 9 8 10 10 9 10 9 8 7 9 8 8 8
6 8 11 9 7 4 3 1 2 4 3 6 6 6 8 8 8 8 8 7 6 5 5 4 6 5 5 6 9 8 8 8 6 9 8 11 6 0 5 6 9 11 10 11 12 8 7 7 6 6 6 5 7 5
8 4 5 5 5 2 2 1 1 4 4 5 7 6 9 9 7 8 8 6 5 5 5 4 6 5 5 5 6 8 8 9 10 9 9 9 9 5 2 5 5 9 9 9 9 7 8 6 6 6 5 6 7 7
5 3 2 5 1 1 2 2 3 2 5 5 7 10 7 7 8 8 3 2 4 1 2 5 7 8 11 9 6 3 7 7 8 10 10 10 10 9 5 3 5 7 8 8 8 9 9 8 7 6 7 6 7 8
2 0 2 1 1 1 3 1 4 6 4 6 7 7 7 6 7 7 11 3 6 6 6 6 8 9 11 12 11 11 9 9 9 8 10 11 9 4 8 6 5 6 7 9 10 10 10 9 9 9 9 8 8 9
2 2 2 1 1 1 2 1 4 3 4 7 7 6 4 4 6 8 5 4 3 4 6 6 9 10 9 10 10 9 10 11 8 9 9 8 9 9 7 9 6 6 7 8 9 9 10 10 11 11 11 10 10 9
1 1 2 2 1 1 2 1 1 3 4 4 5 5 5 4 5 2 2 3 5 8 9 12 9 8 9 10 7 9 10 9 9 10 11 9 9 8 8 9 8 7 8 6 8 9 10 11 12 11 12 12 12 11
3 2 2 2 2 1 1 2 2 2 4 6 4 4 4 3 2 3 4 7 9 10 10 10 9 7 7 7 7 7 11 9 8 10 10 10 9 9 8 9 7 7 6 7 10 11 12 13 13 13 14 13 14 15
4 5 6 4 3 3 0 2 1 3 5 3 2 2 2 3 4 4 5 8 8 7 9 9 9 9 7 8 9 10 11 10 8 8 9 8 7 7 8 8 9 6 5 7 8 11 13 15 16 19 16 15 11 15
4 5 5 3 1 1 2 3 2 2 3 2 2 4 3 3 3 3 5 6 6 7 9 8 9 9 8 9 9 10 10 9 8 9 8 6 6 9 9 8 9 9 11 7 10 14 16 17 18 19 17 15 16 15
4 4 6 6 3 2 3 2 4 4 3 2 2 3 2 3 3 4 4 7 8 8 8 8 9 9 8 8 8 10 12 13 12 9 5 7 9 6 12 11 12 17 10 10 10 12 13 16 17 17 17 16 16 16
4 4 4 5 4 3 5 4 3 2 0 2 1 2 3 3 2 3 4 6 5 6 7 9 10 10 9 9 10 10 11 12 19 24 21 12 13 9 13 11 12 12 12 9 4 7 13 13 15 14 18 14 13 13
6 6 4 5 4 6 4 4 2 1 2 2 4 5 4 3 2 3 4 5 6 7 8 8 8 10 11 12 12 14 11 11 11 11 12 12 11 12 12 12 12 12 11 13 6 4 9 11 11 11 11 11 10 8
6 5 4 3 3 3 2 3 2 2 1 2 3 4 5 5 3 6 7 6 5 6 8 9 9 10 11 11 11 13 12 13 16 17 14 10 11 11 11 12 10 10 10 13 2 6 8 10 11 15 17 16 17 17
5 6 5 5 4 3 3 4 3 2 4 3 3 4 5 4 4 3 5 7 7 7 8 8 8 9 11 10 10 9 8 11 13 14 18 14 14 15 12 11 11 10 10 11 13 8 4 7 7 6 10 18 17 16
5 5 4 2 3 4 4 1 2 4 2 2 3 3 2 3 4 3 3 5 6 7 7 6 6 7 8 12 12 10 10 10 12 11 17 17 16 17 13 12 11 12 15 13 15 13 14 20 16 16 14 11 12 15
Wind_Direction
302 302 307 320 333 334 333 333 331 332 336 333 328 326 323 320 318 315 285 248 235 264 278 266 271 262 256 228 253 323 304 213 299 336 331 354 304 331 287 294 316 316 311 238 221 247 254 15 322 228 270 331 335 326
299 305 331 334 330 329 334 331 331 330 327 327 326 323 319 317 320 316 274 343 273 248 272 291 279 270 264 257 259 231 296 318 280 298 303 304 304 302 315 303 124 358 266 304 274 344 265 276 260 252 268 287 290 301
301 330 331 328 325 330 327 327 327 327 324 321 320 319 314 310 305 299 285 300 245 263 277 253 245 206 230 233 222 219 226 250 261 57 278 285 272 279 290 287 260 242 213 241 279 237 261 291 326 3 213 249 282 282
315 323 321 321 326 324 325 326 326 323 318 320 314 309 307 305 300 287 273 263 291 298 280 289 259 269 274 232 215 212 251 197 346 233 244 254 269 209 276 291 312 260 300 326 293 334 335 345 5 5 48 239 291 283
315 316 316 322 324 322 328 326 325 318 320 313 309 308 314 309 300 282 264 247 225 247 294 301 303 257 208 217 220 223 224 245 274 267 230 241 252 308 268 276 337 343 333 343 321 23 346 10 353 6 19 15 13 360
306 308 319 324 322 327 327 326 319 318 312 316 317 311 306 302 286 277 272 62 184 166 267 287 333 272 220 234 227 212 213 216 219 254 246 240 227 222 280 300 12 9 359 4 1 18 360 19 18 357 1 11 14 22
293 308 322 322 322 326 325 321 320 315 317 316 312 310 305 287 226 217 337 52 152 151 245 274 271 178 238 234 183 187 182 202 213 234 228 244 259 185 265 311 8 2 7 20 23 16 2 26 16 3 355 352 27 45
287 306 318 319 325 326 327 326 321 317 315 313 314 314 308 212 222 240 256 219 148 223 238 265 274 254 173 207 208 191 193 198 206 260 249 264 321 226 262 61 25 1 347 22 27 61 33 0 25 20 359 37 32 42
288 310 315 322 326 328 329 326 321 321 320 320 315 309 195 224 198 171 343 276 154 242 261 235 261 306 164 255 213 190 211 225 164 236 241 195 236 234 28 94 57 20 32 357 34 44 24 23 13 10 37 33 45 41
290 307 314 320 327 325 324 322 325 332 322 312 285 229 205 84 334 279 200 188 153 207 230 249 242 246 312 295 275 225 194 235 234 197 188 226 264 256 169 105 71 43 27 9 32 31 24 20 6 18 26 43 50 51
291 307 315 319 323 319 321 323 335 333 303 340 336 309 346 322 247 205 246 196 169 229 209 224 223 238 241 247 281 284 292 233 269 100 271 226 248 135 156 154 113 97 65 39 59 57 49 34 15 16 29 40 51 51
290 308 317 319 322 316 314 315 331 324 332 309 295 308 287 281 244 239 228 207 213 266 186 271 190 207 249 276 246 235 261 228 273 48 260 259 79 132 157 144 126 130 99 68 59 71 65 51 33 25 38 39 36 56
296 309 313 318 327 349 341 332 326 319 306 227 235 252 244 226 276 249 216 229 228 355 36 330 284 239 186 245 271 278 235 241 322 243 278 342 105 152 155 133 139 131 103 90 83 74 68 64 56 37 43 48 43 42
299 305 311 310 306 325 327 326 326 325 270 282 293 284 253 250 254 303 340 328 349 357 309 292 295 253 239 165 191 232 200 229 238 230 139 24 36 161 166 152 152 149 130 107 90 81 69 72 66 51 50 53 59 55
301 308 311 299 301 321 322 321 316 282 271 273 264 257 248 347 316 31 21 351 316 300 328 319 283 227 190 217 212 293 197 231 222 19 48 10 333 222 171 168 161 155 156 135 110 91 76 68 72 71 63 65 61 62
313 301 186 329 328 323 320 311 317 251 240 259 245 275 314 307 336 313 20 324 317 323 298 260 271 254 240 213 178 229 241 207 47 30 1 3 338 227 180 179 170 163 159 138 129 113 99 78 72 73 70 66 68 70
295 237 21 327 322 312 342 339 309 86 310 267 250 269 287 292 314 313 323 325 353 293 304 299 255 306 133 13 273 314 30 18 343 36 22 25 336 231 198 183 152 151 159 164 147 139 115 111 101 88 75 65 68 73
251 337 320 324 326 311 313 295 266 255 257 259 295 323 321 306 295 292 294 307 312 307 284 298 313 282 305 300 316 41 27 359 2 354 341 346 342 272 216 186 164 190 179 173 167 148 147 145 135 115 112 105 91 82
320 319 322 322 329 311 325 321 307 295 286 318 296 312 313 307 296 286 277 270 274 283 294 272 265 266 289 35 1 349 355 7 349 316 322 320 304 173 229 209 174 175 185 178 169 172 157 162 121 134 127 133 101 95
289 287 333 325 285 246 253 204 244 279 284 318 301 293 322 313 316 300 287 286 280 232 216 233 268 2 352 345 337 329 330 327 322 319 332 343 339 333 222 228 210 177 175 179 182 165 156 164 157 150 134 111 119 117
235 71 288 283 112 283 292 310 267 280 304 294 316 322 317 313 313 316 310 296 256 264 317 6 334 324 337 325 318 292 290 329 317 308 317 319 324 323 336 308 211 198 181 184 190 180 178 179 164 143 150 140 118 113
100 267 288 112 258 184 263 220 304 320 278 294 303 315 336 358 344 3 324 338 44 5 348 344 336 335 322 329 339 333 332 347 330 324 317 320 311 320 301 285 255 218 212 197 193 192 194 173 162 161 159 130 132 128
163 206 184 189 201 135 262 275 274 318 297 326 328 334 17 356 345 328 59 4 349 335 329 337 337 336 332 337 345 346 349 339 320 310 307 305 301 299 278 284 273 263 227 202 193 186 192 152 162 166 143 154 143 133
163 170 213 160 178 317 296 276 250 278 280 322 337 350 356 335 328 30 72 17 357 358 358 354 347 344 355 2 359 347 345 338 323 309 304 309 303 306 314 304 290 259 249 229 195 182 160 175 162 165 163 156 152 157
190 166 186 202 197 234 241 307 293 333 306 341 326 352 351 318 332 68 21 7 357 2 351 345 353 350 348 343 333 332 340 335 321 307 297 292 290 292 296 291 270 261 247 206 199 180 166 173 179 172 173 168 165 164
200 173 193 175 152 207 160 278 161 282 319 306 337 305 341 318 38 34 12 360 351 347 346 355 351 345 350 347 334 334 332 329 317 304 298 309 332 318 305 291 292 252 221 222 194 184 185 180 181 176 177 172 161 167
180 190 180 219 235 139 234 230 264 228 252 257 350 336 344 40 47 36 6 24 335 339 345 352 357 349 343 338 338 340 337 336 325 305 295 359 20 22 347 339 328 322 328 241 218 198 195 189 184 174 169 179 176 176
225 203 170 176 178 186 222 236 219 222 218 182 286 38 70 19 9 4 352 349 333 343 349 359 6 354 354 356 346 354 358 353 348 359 3 19 5 356 356 342 333 315 291 273 251 217 202 190 189 183 171 173 176 174
200 179 146 169 176 194 216 222 240 198 213 269 224 87 126 74 22 336 330 324 347 1 3 1 7 358 5 3 10 15 14 5 5 12 9 354 343 342 343 337 336 333 328 302 243 263 203 188 181 179 157 165 180 169
185 175 176 172 192 207 195 202 266 18 209 35 87 127 124 128 61 14 4 3 8 10 3 3 14 5 7 5 3 5 18 17 14 5 348 343 333 324 328 334 336 330 329 313 220 129 112 121 122 132 142 138 149 156
143 174 172 187 230 208 185 160 126 151 234 199 137 165 139 138 135 59 21 355 4 30 10 4 5 21 9 7 5 359 359 0 2 2 358 341 341 344 340 341 341 337 344 335 334 159 141 154 154 152 155 154 156 148
174 183 174 189 211 192 193 203 157 217 162 158 131 140 143 162 119 76 16 4 20 20 12 5 360 9 9 1 7 11 349 355 1 2 2 359 358 354 358 355 359 5 6 23 20 23 132 120 115 136 152 153 158 151
175 181 187 213 218 216 161 208 154 121 123 117 94 83 89 80 89 94 68 32 24 13 4 348 348 8 9 10 4 356 359 3 6 9 4 4 5 10 8 7 15 25 35 36 44 38 49 69 69 72 71 78 96 110